Vertical_Velocity
-1 -5 -4 -8 -5 -2 -2 1 1 -1 0 -0 3 1 0 8 5 0 3 16 -5 2 1 -5 -8 3 -0 -2 -3 -3 3 -4 1 -2 -1 -0 1 2 -2 -4 -1 -9 7 -2 2 5 -0
-2 -3 -1 -6 -2 -3 4 4 2 3 0 -2 -4 1 1 0 4 1 2 2 13 -6 3 -0 -1 -2 1 -1 -2 -6 2 -4 -2 1 2 3 -0 4 -3 -3 -0 3 3 1 0 -2 2
-2 1 -1 -3 -2 -0 2 -4 -0 3 -0 0 1 1 0 -1 3 0 -2 -9 5 -2 -0 1 1 -5 -3 -3 -1 -6 2 -0 -2 1 -0 -2 -2 4 1 7 -4 0 -1 -1 -7 -7 -6
-6 -5 -2 -1 -5 -5 -1 -2 -5 -2 5 5 0 3 1 -2 3 2 -3 0 2 -5 -5 -0 -0 -1 0 -2 -0 -4 1 -2 -0 1 -0 -4 -3 1 -4 -0 0 1 11 1 -1 -1 -7
-3 1 3 -0 -2 1 2 0 0 -1 -3 1 1 -0 1 -1 0 3 -2 23 5 -5 6 -2 -1 -4 0 -1 -3 -2 2 -4 -2 -0 -3 -0 -1 -5 2 1 -2 -3 7 -5 7 -4 3
1 -1 -2 -2 -2 -1 -1 0 -2 1 3 0 0 0 2 -1 2 -6 5 3 -3 3 3 2 -1 0 -5 -4 -4 -3 3 -2 2 2 0 2 1 2 -1 -1 -5 2 1 6 5 -4 -1
-2 -0 3 2 2 4 3 3 4 3 3 0 1 2 1 -1 -1 3 -1 8 12 -0 3 3 1 -1 1 -1 -1 -3 1 -1 1 4 1 -1 -1 -1 9 -4 -2 0 16 10 3 6 4
-2 1 -0 2 4 2 -1 -1 3 3 -3 1 1 0 0 -0 -2 4 -0 10 2 0 -4 0 -1 -1 -3 2 2 1 -3 -2 4 3 1 0 -2 2 4 -3 -1 0 7 6 1 1 1
-1 -0 0 2 1 -1 0 4 -0 -2 5 5 -0 -0 1 3 0 10 -6 5 5 -0 1 0 -1 -7 -2 5 -2 -2 -5 4 1 1 -0 1 1 -0 3 -0 -3 2 1 1 -6 4 4
-1 -3 -4 -3 4 5 2 3 1 3 -1 5 1 -2 1 4 1 -4 0 8 -3 3 2 -0 -2 -2 -1 0 -1 -4 1 3 1 -2 1 -0 3 -1 -1 3 1 3 -2 7 -5 5 1
-2 -1 -3 7 5 3 2 4 5 -1 5 -3 2 3 1 -2 4 -1 10 -4 -3 1 4 1 -0 -4 1 5 -2 0 4 4 -1 0 1 -2 0 1 -0 2 3 4 5 4 -2 4 10
-5 0 -0 3 6 6 3 0 15 -6 -8 -2 1 4 1 5 -2 1 -6 7 0 1 3 -1 -3 -4 4 2 -4 1 2 1 -3 0 -3 -0 -2 -1 -2 -3 5 2 0 3 1 -4 1
4 -2 3 9 3 0 2 10 4 11 2 -6 2 3 7 2 -1 3 -5 6 4 2 -1 -2 -3 1 4 -4 1 3 1 -3 1 6 1 -4 -3 -2 3 7 5 -4 9 3 4 -1 4
2 0 -1 -2 5 -1 15 37 -6 6 1 0 1 5 -0 -2 -4 -1 -4 14 4 -1 -3 2 -1 4 -4 3 3 0 0 3 2 -1 -3 -0 -1 -1 -1 8 -3 1 2 5 -0 -0 2
-0 -6 3 -4 1 -0 13 27 -2 -0 -4 -0 0 2 1 -5 -1 -1 -4 4 6 -5 -0 -0 4 -1 2 -1 2 2 1 2 2 -4 6 1 4 -1 1 5 8 -4 -0 -2 -4 -1 -7
-4 -0 5 3 -3 7 -5 -5 6 2 3 1 0 -1 -4 0 3 1 1 -4 0 -1 1 4 6 -1 0 -6 4 1 1 -1 -2 -2 -1 -2 3 -2 4 -0 4 2 2 4 -0 -0 1
-3 6 2 -3 -2 1 -2 6 5 0 -0 -1 0 -2 2 7 2 13 1 -2 -1 1 -3 4 4 1 2 -3 3 2 -0 -2 1 1 0 5 5 3 -6 -1 1 7 2 -2 -2 -1 -1
-2 -5 -3 -0 -3 4 -1 -3 -3 -4 -0 -2 0 -1 12 5 32 -0 5 -6 7 -1 -1 3 3 1 5 -2 2 0 -3 1 -4 1 1 2 -2 -0 -4 -3 -0 1 5 4 2 3 -4
-1 -1 2 -1 2 -2 -6 -5 -4 -5 -2 3 -2 -2 10 22 -2 6 -5 -3 -4 -1 2 7 4 -2 4 -3 -1 -0 -2 -2 -3 1 2 1 -1 1 -2 0 2 -0 1 3 -0 -2 1
1 0 8 1 7 4 0 0 -3 -5 -3 1 -0 -2 7 5 -5 0 -0 -2 3 -0 1 3 2 4 5 -2 0 -3 -3 -6 -2 0 -1 2 1 0 2 2 -1 -1 -1 -2 -3 -3 7
3 -0 1 -0 10 3 2 6 9 4 -3 -7 -5 -1 -3 -11 -6 -0 2 -1 1 2 -1 -0 0 3 2 -6 -1 -0 -1 -0 -1 -3 -4 -4 -5 -2 -1 -2 0 2 -1 -1 -4 -0 -2
0 -2 0 1 3 3 1 -5 5 0 -9 -9 -14 -6 1 -4 -1 1 1 -1 -2 -0 -1 1 2 0 1 -1 0 -1 -0 -0 -1 -1 -0 1 -1 -1 -1 4 2 -1 -3 -4 -2 0 1
6 4 1 -2 4 -3 -4 -0 -2 -7 3 -9 -7 -7 -6 -1 1 2 -1 -0 -0 -2 -2 -2 5 2 -0 -1 -2 1 -1 -2 -1 -2 -3 -3 -3 -1 -1 -0 -2 -2 1 2 -1 -3 -2
-6 -2 9 -2 2 -1 -5 -7 -5 -3 -2 2 -2 -6 -4 -2 0 0 -0 -1 -1 -2 1 -1 1 4 1 -3 1 1 -1 -0 -1 -2 -2 -2 -2 -3 -2 -3 -1 -2 -1 -0 0 -1 -0
-5 -2 0 2 -4 -2 -4 -8 -5 -4 -4 -3 -4 -3 0 0 2 0 -0 -3 -3 0 -3 0 1 2 -1 0 1 -1 1 -1 -0 -0 -1 1 1 -2 -0 -1 -2 -4 -3 -2 -1 -1 -1
-6 -6 -4 6 -1 -3 -3 -6 -1 -2 -4 -5 -0 2 -1 -1 -2 -1 -1 -4 -4 -2 -1 -0 1 1 1 -0 -0 -1 0 -0 -0 -1 -1 -1 -1 -1 -2 -0 -1 -3 -2 -3 -5 -3 -3
3 -1 -1 1 -2 3 -2 -6 -3 1 -2 -4 0 1 -1 2 -1 -2 -5 -7 -4 0 -1 1 -1 1 1 -2 -0 0 0 -1 0 -0 -3 -1 -2 -0 -1 -1 -0 -1 -2 -0 2 -0 -1
-4 -1 -1 3 -2 6 6 -1 -5 -1 -2 -3 -4 -1 -1 -0 -1 -3 -3 -6 -3 -0 0 -1 2 2 -2 -1 -2 -2 1 -1 -1 -1 -3 -2 -1 -2 -0 -1 -2 -3 -0 -3 -2 -2 0
-1 -12 -11 -1 -4 2 4 4 -0 -2 4 2 -1 -4 -3 -2 -1 -1 -2 -4 -3 0 -0 1 -1 -1 -3 -1 -1 -0 -1 -0 0 1 -1 -2 -5 1 -3 -1 -1 -1 -1 -1 -1 -1 -2
Height
3120 3113 3108 3104 3100 3095 3091 3088 3084 3081 3079 3076 3074 3073 3072 3071 3071 3070 3071 3070 3068 3068 3065 3063 3061 3058 3057 3056 3055 3051 3049 3048 3046 3043 3042 3039 3037 3038 3036 3036 3039 3037 3039 3041 3041 3044 3047
3111 3105 3102 3096 3091 3086 3082 3078 3075 3072 3068 3066 3064 3063 3062 3061 3062 3063 3064 3062 3062 3061 3059 3057 3055 3052 3052 3053 3050 3046 3045 3045 3043 3040 3038 3034 3032 3034 3032 3034 3035 3036 3035 3034 3035 3037 3040
3105 3099 3093 3088 3082 3076 3071 3068 3066 3063 3061 3057 3054 3053 3052 3052 3053 3055 3056 3055 3054 3055 3054 3052 3048 3048 3048 3049 3046 3042 3042 3041 3039 3036 3034 3030 3028 3030 3030 3030 3029 3030 3030 3028 3027 3029 3034
3099 3093 3087 3081 3074 3068 3064 3059 3052 3050 3050 3049 3046 3043 3043 3044 3045 3046 3048 3049 3049 3048 3047 3045 3043 3042 3043 3043 3041 3039 3039 3038 3035 3033 3032 3028 3026 3027 3028 3028 3028 3027 3024 3022 3019 3025 3029
3091 3084 3076 3070 3065 3059 3053 3050 3045 3041 3038 3038 3039 3036 3035 3036 3037 3038 3041 3042 3040 3043 3041 3041 3039 3039 3039 3039 3038 3037 3036 3035 3034 3031 3030 3028 3027 3027 3027 3026 3026 3024 3020 3016 3017 3021 3025
3081 3074 3066 3060 3055 3050 3046 3042 3038 3036 3031 3027 3031 3029 3027 3028 3030 3032 3035 3036 3036 3035 3036 3035 3034 3037 3036 3035 3035 3034 3034 3033 3032 3030 3029 3027 3026 3025 3024 3024 3023 3020 3020 3018 3016 3018 3022
3073 3067 3060 3053 3048 3043 3039 3036 3032 3028 3025 3021 3022 3021 3020 3020 3022 3025 3028 3030 3033 3032 3031 3029 3030 3030 3030 3031 3031 3031 3032 3031 3030 3028 3026 3025 3024 3021 3021 3020 3018 3018 3019 3017 3015 3016 3020
3066 3059 3053 3047 3040 3036 3032 3028 3024 3022 3019 3017 3014 3015 3014 3014 3016 3018 3020 3022 3025 3027 3026 3024 3024 3025 3026 3028 3028 3029 3030 3030 3028 3026 3024 3025 3021 3020 3016 3016 3017 3019 3019 3018 3018 3017 3020
3058 3050 3044 3038 3032 3026 3022 3019 3016 3013 3012 3010 3007 3009 3009 3010 3011 3014 3015 3016 3019 3021 3022 3020 3019 3020 3023 3025 3026 3026 3028 3027 3026 3023 3024 3023 3021 3018 3015 3015 3016 3017 3019 3018 3017 3017 3018
3050 3043 3035 3028 3022 3017 3013 3009 3006 3005 3003 3002 3001 3002 3004 3005 3009 3010 3010 3013 3015 3017 3017 3018 3016 3018 3021 3022 3024 3025 3025 3026 3024 3023 3024 3022 3020 3018 3016 3016 3016 3017 3017 3019 3017 3019 3020
3042 3035 3026 3018 3013 3007 3003 2999 2996 2994 2992 2994 2995 2995 2997 3001 3002 3006 3009 3009 3012 3015 3014 3017 3016 3017 3019 3022 3023 3024 3024 3024 3023 3023 3024 3022 3021 3018 3016 3016 3015 3017 3016 3018 3018 3018 3019
3035 3024 3015 3009 3004 2998 2993 2990 2987 2984 2984 2984 2988 2990 2991 2995 2998 3001 3005 3006 3011 3015 3011 3014 3015 3016 3018 3020 3021 3021 3023 3023 3022 3022 3021 3020 3020 3019 3018 3016 3012 3016 3018 3020 3020 3020 3021
3027 3014 3005 2998 2993 2988 2983 2981 2978 2976 2977 2978 2981 2984 2987 2990 2996 2999 3003 3006 3010 3008 3012 3013 3014 3016 3018 3019 3019 3020 3022 3022 3022 3024 3022 3020 3019 3019 3018 3017 3016 3018 3020 3020 3023 3021 3024
3018 3006 2997 2990 2983 2978 2974 2970 2973 2971 2971 2974 2976 2979 2983 2988 2992 2996 3001 3007 3007 3007 3008 3010 3013 3016 3018 3019 3019 3019 3021 3022 3023 3023 3023 3022 3022 3018 3017 3017 3017 3020 3021 3017 3015 3019 3026
3009 2999 2989 2982 2975 2971 2969 2965 2969 2970 2970 2971 2973 2975 2981 2986 2990 2994 3001 3006 3004 3005 3007 3009 3013 3016 3018 3018 3019 3019 3021 3022 3023 3022 3025 3023 3021 3020 3018 3016 3019 3020 3021 3020 3020 3025 3025
3005 2993 2983 2975 2972 2967 2965 2965 2967 2968 2969 2971 2974 2975 2980 2984 2988 2993 3001 3003 3003 3005 3006 3010 3014 3016 3018 3018 3019 3020 3021 3023 3023 3024 3024 3024 3022 3020 3019 3020 3021 3021 3022 3023 3021 3023 3030
3001 2991 2980 2974 2972 2971 2968 2967 2967 2968 2970 2972 2973 2974 2977 2981 2988 2994 3000 3002 3003 3005 3008 3012 3013 3015 3017 3017 3019 3021 3023 3024 3024 3025 3024 3022 3023 3024 3021 3022 3024 3025 3025 3024 3023 3025 3023
3002 2992 2984 2977 2974 2972 2970 2969 2969 2969 2972 2973 2973 2974 2974 2980 2989 2995 2999 3001 3004 3006 3009 3012 3014 3016 3017 3019 3021 3021 3024 3025 3025 3025 3025 3024 3025 3024 3027 3028 3027 3026 3025 3024 3023 3030 3029
3002 2993 2986 2981 2976 2973 2971 2970 2968 2969 2972 2973 2975 2976 2979 2986 2993 2996 2999 3002 3005 3008 3011 3014 3016 3017 3018 3021 3023 3024 3026 3027 3027 3027 3027 3028 3030 3030 3030 3033 3031 3030 3029 3027 3028 3030 3033
3001 2995 2986 2980 2976 2974 2970 2970 2969 2970 2972 2973 2977 2980 2985 2991 2994 2998 3000 3003 3006 3008 3012 3015 3016 3018 3020 3022 3023 3025 3027 3029 3030 3030 3029 3029 3029 3029 3031 3032 3033 3033 3034 3034 3034 3036 3039
3000 2994 2988 2980 2976 2973 2970 2970 2968 2970 2972 2976 2979 2983 2988 2992 2996 2999 3002 3004 3006 3009 3013 3015 3018 3020 3023 3024 3025 3026 3028 3030 3032 3033 3033 3033 3033 3032 3033 3034 3034 3035 3036 3037 3038 3040 3043
3000 2995 2990 2983 2977 2973 2971 2967 2965 2966 2970 2978 2983 2985 2990 2991 2997 3000 3004 3006 3008 3011 3014 3017 3020 3022 3025 3027 3027 3028 3029 3031 3032 3034 3034 3035 3037 3037 3037 3036 3038 3038 3039 3040 3042 3044 3046
2999 2995 2990 2985 2980 2976 2974 2968 2970 2969 2975 2980 2986 2990 2993 2995 2997 3002 3006 3007 3010 3012 3016 3019 3022 3024 3026 3028 3029 3029 3030 3031 3032 3034 3035 3035 3035 3035 3037 3037 3038 3040 3041 3042 3044 3045 3047
3000 2996 2991 2986 2982 2981 2980 2979 2979 2979 2982 2988 2991 2994 2997 2999 3000 3003 3006 3009 3011 3013 3017 3020 3022 3025 3028 3029 3030 3031 3032 3032 3033 3034 3036 3037 3038 3039 3040 3040 3041 3042 3041 3042 3043 3044 3046
3002 2997 2993 2989 2983 2984 2986 2986 2986 2988 2989 2992 2994 2997 2999 3000 3000 3001 3004 3009 3011 3014 3017 3021 3024 3026 3028 3031 3032 3033 3034 3035 3035 3035 3036 3037 3038 3039 3042 3043 3044 3042 3042 3043 3044 3045 3045
3000 2999 2994 2990 2985 2988 2990 2991 2992 2995 2995 2997 3000 3002 3003 3001 3000 3000 3002 3008 3013 3016 3019 3022 3025 3027 3029 3032 3034 3034 3035 3035 3036 3036 3036 3037 3038 3041 3041 3042 3041 3041 3041 3043 3045 3046 3045
3003 2999 2995 2992 2990 2991 2993 2994 2997 3001 3003 3003 3004 3005 3005 3003 3002 3002 3004 3008 3013 3017 3020 3023 3026 3028 3031 3032 3034 3034 3034 3035 3035 3035 3036 3038 3038 3039 3040 3040 3039 3038 3040 3042 3045 3046 3043
3004 3001 2997 2994 2993 2997 2997 2998 3000 3003 3006 3008 3008 3008 3008 3005 3005 3006 3007 3010 3014 3018 3021 3024 3028 3029 3031 3033 3034 3034 3034 3034 3034 3034 3034 3037 3037 3037 3038 3039 3038 3036 3038 3041 3041 3040 3041
3006 3003 2999 2997 2995 2997 2998 2999 3002 3003 3005 3008 3010 3010 3010 3009 3009 3010 3010 3012 3016 3020 3023 3024 3027 3028 3030 3032 3033 3033 3033 3033 3033 3034 3033 3034 3034 3034 3034 3034 3033 3034 3035 3037 3038 3039 3039